Weather History for CYMX - March, 2014

Change the Weather History Date:

Friday, March 21, 2014

  Actual Average Record
Temperature  
Mean Temperature 32 °F -  
Max Temperature 37 °F 32 °F 78 °F (2012)
Min Temperature 26 °F 17 °F 1 °F (2007)
Degree Days  
Heating Degree Days 34    
Moisture  
Dew Point 18 °F    
Average Humidity 61    
Maximum Humidity 93    
Minimum Humidity 38    
Precipitation  
Precipitation 0.00 in - - ()
Sea Level Pressure  
Sea Level Pressure 29.84 in    
Wind  
Wind Speed 9 mph ()    
Max Wind Speed 16 mph    
Max Gust Speed 25 mph    
Visibility 9.0 miles    
Events Snow    
Averages and records for this station are not official NWS values.
T = Trace of Precipitation, MM = Missing Value Source: Averaged Metar Reports

Daily Weather History Graph

Daily Weather History Graph

Search for Another Location

Airport or City:

Trip Planner

Search our weather history database for the weather conditions in past years. The results will help you decide how hot, cold, wet, or windy it might be!

Date:

Astronomy

Mar. 21, 2014 Rise Set
Actual Time 6:57 AM EDT 7:10 PM EDT
Civil Twilight 6:27 AM EDT 7:39 PM EDT
Nautical Twilight 5:52 AM EDT 8:14 PM EDT
Astronomical Twilight 5:17 AM EDT 8:50 PM EDT
Moon No Moon Rise 9:33 AM EDT (3/21)
Length of Visible Light 13h 11m
Length of Day
12h 12m
Waning Gibbous, 75% of the Moon is Illuminated
Mar 21
Waning Gibbous
Mar 23
Last Quarter
Mar 30
New
Apr 7
First Quarter
Apr 15
Full

Hourly Weather History & Observations

Time (EDT) Temp. Windchill Dew Point Humidity Pressure Visibility Wind Dir Wind Speed Gust Speed Precip Events Conditions
12:00 AM 32.0 °F 23.0 °F 28.4 °F 87% 29.62 in 7.0 mi WSW 11.5 mph 19.6 mph N/A Snow Light Snow
12:44 AM 30.2 °F 20.2 °F 28.4 °F 93% 29.64 in 7.0 mi WSW 12.7 mph 20.7 mph N/A Snow Light Snow
1:00 AM 30.2 °F 21.9 °F 26.6 °F 86% 29.64 in 7.0 mi WSW 9.2 mph 19.6 mph N/A Snow Light Snow
2:00 AM 30.2 °F 20.8 °F 24.8 °F 80% 29.66 in 15.0 mi West 11.5 mph 21.9 mph N/A Snow Light Snow
3:00 AM 30.2 °F 21.3 °F 24.8 °F 80% 29.68 in 25.0 mi West 10.4 mph 18.4 mph N/A Snow Light Snow
4:00 AM 28.4 °F 19.7 °F 23.0 °F 80% 29.70 in 25.0 mi West 9.2 mph - N/A   Overcast
5:00 AM 28.4 °F 19.1 °F 19.4 °F 69% 29.73 in 25.0 mi West 10.4 mph 20.7 mph N/A   Overcast
6:00 AM 28.4 °F 17.5 °F 17.6 °F 64% 29.76 in 25.0 mi West 13.8 mph - N/A   Overcast
7:00 AM 26.6 °F 18.2 °F 17.6 °F 69% 29.79 in 25.0 mi West 8.1 mph 20.7 mph N/A   Overcast
8:00 AM 26.6 °F 18.2 °F 19.4 °F 74% 29.81 in 30.0 mi West 8.1 mph - N/A   Overcast
9:00 AM 26.6 °F 17.5 °F 17.6 °F 69% 29.83 in 25.0 mi WNW 9.2 mph 17.3 mph N/A   Overcast
10:00 AM 28.4 °F 19.7 °F 17.6 °F 64% 29.85 in 30.0 mi WNW 9.2 mph 19.6 mph N/A   Overcast
11:00 AM 30.2 °F 18.9 °F 15.8 °F 55% 29.87 in 40.0 mi NW 16.1 mph - N/A   Mostly Cloudy
12:00 PM 32.0 °F 23.6 °F 15.8 °F 51% 29.87 in 45.0 mi West 10.4 mph 21.9 mph N/A   Mostly Cloudy
1:00 PM 32.0 °F 22.1 °F 15.8 °F 51% 29.90 in 45.0 mi WNW 13.8 mph 23.0 mph N/A   Mostly Cloudy
2:00 PM 33.8 °F 24.8 °F 15.8 °F 48% 29.90 in 45.0 mi West 12.7 mph 23.0 mph N/A   Mostly Cloudy
3:00 PM 35.6 °F 28.6 °F 15.8 °F 44% 29.90 in 45.0 mi West 9.2 mph 21.9 mph N/A   Partly Cloudy
4:00 PM 37.4 °F 29.8 °F 14.0 °F 38% 29.91 in 45.0 mi West 11.5 mph 25.3 mph N/A   Partly Cloudy
5:00 PM 37.4 °F 29.8 °F 14.0 °F 38% 29.92 in 45.0 mi West 11.5 mph 20.7 mph N/A   Partly Cloudy
6:00 PM 35.6 °F 28.6 °F 14.0 °F 41% 29.95 in 45.0 mi West 9.2 mph - N/A   Partly Cloudy
7:00 PM 33.8 °F 27.7 °F 14.0 °F 44% 29.96 in 45.0 mi West 6.9 mph - N/A   Partly Cloudy
8:00 PM 30.2 °F 25.4 °F 14.0 °F 51% 29.99 in 25.0 mi West 4.6 mph - N/A   Clear
9:00 PM 30.2 °F 26.7 °F 14.0 °F 51% 30.01 in 25.0 mi West 3.5 mph - N/A   Clear
10:00 PM 28.4 °F 23.3 °F 14.0 °F 55% 30.01 in 25.0 mi West 4.6 mph - N/A   Clear
11:00 PM 28.4 °F - 14.0 °F 55% 30.00 in 25.0 mi Calm Calm - N/A   Clear